Altus AFB, OK

5:07 AM CDT on October 15, 2019 (GMT -0500)
Altus Air Force Base

Weather History for KLTS - August, 2019

Change the Weather History Date:

Sunday, August 18, 2019

  Actual Average Record
Temperature  
Mean Temperature 87 °F -  
Max Temperature 101 °F 94 °F 107 °F (2011)
Min Temperature 73 °F 70 °F 65 °F (2013)
Cooling Degree Days 22    
Growing Degree Days 37 (Base 50)    
Moisture  
Dew Point 68 °F    
Average Humidity 60    
Maximum Humidity 81    
Minimum Humidity 37    
Precipitation  
Precipitation 0.00 in - - ()
Sea Level Pressure  
Sea Level Pressure 29.76 in    
Wind  
Wind Speed 11 mph (SSE)    
Max Wind Speed 15 mph    
Max Gust Speed -    
Visibility 10 miles    
Events      
Averages and records for this station are not official NWS values.
T = Trace of Precipitation, MM = Missing Value Source: NWS Daily Summary

Daily Weather History Graph

Daily Weather History Graph

Search for Another Location

Airport or City:

Astronomy

Aug. 18, 2019 Rise Set
Actual Time 6:59 AM CDT 8:21 PM CDT
Civil Twilight 6:33 AM CDT 8:48 PM CDT
Nautical Twilight 6:01 AM CDT 9:19 PM CDT
Astronomical Twilight 5:28 AM CDT 9:52 PM CDT
Moon 10:23 PM CDT (8/18) 9:40 AM CDT (8/18)
Length of Visible Light 14h 14m
Length of Day
13h 21m
Waning Gibbous, 91% of the Moon is Illuminated
Aug 18
Waning Gibbous
Aug 23
Last Quarter
Aug 30
New
Sep 5
First Quarter
Sep 13
Full

Hourly Weather History & Observations

Time (CDT) Temp. Heat Index Dew Point Humidity Pressure Visibility Wind Dir Wind Speed Gust Speed Precip Events Conditions
12:56 AM 73.9 °F - 64.8 °F 73% 29.75 in 10.0 mi SSE 11.5 mph - N/A   Clear
1:56 AM 73.9 °F - 63.9 °F 71% 29.75 in 10.0 mi SSE 13.8 mph - N/A   Mostly Cloudy
2:56 AM 74.8 °F - 63.5 °F 68% 29.73 in 10.0 mi SSE 12.7 mph - N/A   Clear
3:56 AM 73.2 °F - 63.7 °F 72% 29.74 in 10.0 mi SSE 12.7 mph - N/A   Clear
4:56 AM 73.0 °F - 64.6 °F 75% 29.74 in 10.0 mi SE 8.1 mph - N/A   Scattered Clouds
5:56 AM 73.2 °F - 65.8 °F 78% 29.74 in 10.0 mi SSE 10.4 mph - N/A   Scattered Clouds
6:56 AM 73.0 °F - 66.7 °F 81% 29.75 in 10.0 mi South 6.9 mph - N/A   Clear
7:56 AM 74.7 °F - 68.0 °F 80% 29.75 in 10.0 mi South 9.2 mph - N/A   Partly Cloudy
8:56 AM 79.3 °F - 68.7 °F 70% 29.77 in 10.0 mi South 10.4 mph - N/A   Clear
9:56 AM 86.2 °F 89.7 °F 68.5 °F 55% 29.79 in 10.0 mi South 8.1 mph - N/A   Partly Cloudy
10:56 AM 86.0 °F 89.7 °F 68.9 °F 56% 29.82 in 10.0 mi SE 6.9 mph - N/A   Partly Cloudy
11:56 AM 91.4 °F 96.8 °F 70.0 °F 49% 29.81 in 10.0 mi SE 10.4 mph - N/A   Partly Cloudy
12:56 PM 92.7 °F 99.4 °F 70.7 °F 49% 29.81 in 10.0 mi SE 10.4 mph - N/A   Clear
1:56 PM 93.9 °F 102.7 °F 72.9 °F 50% 29.79 in 10.0 mi SSE 13.8 mph - N/A   Scattered Clouds
2:56 PM 97.3 °F 104.9 °F 71.1 °F 42% 29.75 in 10.0 mi SSE 13.8 mph - N/A   Clear
3:56 PM 101.3 °F 109.7 °F 70.9 °F 37% 29.73 in 10.0 mi South 13.8 mph - N/A   Clear
5:56 PM 99.5 °F 108.1 °F 71.6 °F 40% 29.71 in 10.0 mi SSE 12.7 mph - N/A   Clear
6:56 PM 92.8 °F 101.5 °F 73.0 °F 52% 29.70 in 10.0 mi SSE 11.5 mph - N/A   Scattered Clouds
7:56 PM 88.2 °F 92.5 °F 69.3 °F 53% 29.73 in 10.0 mi SE 8.1 mph - N/A   Mostly Cloudy
8:56 PM 87.8 °F 90.7 °F 67.3 °F 50% 29.74 in 10.0 mi SSE 10.4 mph - N/A   Clear
9:56 PM 88.7 °F 91.1 °F 66.4 °F 47% 29.77 in 10.0 mi South 15.0 mph - N/A   Clear
10:56 PM 83.5 °F 86.4 °F 68.0 °F 59% 29.80 in 10.0 mi South 3.5 mph - N/A   Clear
11:56 PM 81.3 °F 84.1 °F 68.0 °F 64% 29.83 in 10.0 mi SSE 6.9 mph - N/A   Clear